Weather in Balakleya

Ukraine / Cherkassi District     49°13′38″N   31°44′05″E
temp.,
°C
wind,
m/s
gust,
m/s
humid.,
%
clouds,
%
prec.,
mm/h
press.,
hPa
HPBL,
m
16 june, wed
wed1600:00+17nne2594100 3.8 101096
03:00+16n359624 5.0 101096
06:00+16nne379832 3.4 1010221
09:00+20ne578593 3.9 1011552
12:00+19nne3688100 3.8 1012189
15:00+19ene2589100 5.3 1012198
18:00+19ne2588100 0.7 1013165
21:00+18n3792100 0.9 1014180
17 june, thu
thu1700:00+16n359516 0.1 1014106
03:00+15nne359659 0.4 101594
06:00+16ne3797100 0.0 1015186
09:00+21ne688365 0.0 1016586
12:00+24ene797299 0.4 10171202
15:00+24ne8970100 1.1 10171300
18:00+23ne710786 0.6 10171017
21:00+20ne6139192 1.0 1018491
18 june, fri
fri1800:00+18ne613949 0.0 1019480
03:00+17ne5129617 0.0 1019420
06:00+17nne5129423 0.0 1019444
09:00+20ene7118056 0.0 1019684
12:00+23ene9117195 0.0 10191223
15:00+23ene7117696 0.2 10191177
18:00+22ene6127773 0.2 1019956
21:00+20e411840 0.2 1020386
19 june, sat
sat1900:00+18ene39953 0.0 1021221
03:00+17ene359694 0.0 1021124
06:00+18ene499564 0.1 1021382
09:00+19ene4886100 0.2 1021480
12:00+23e796513 0.0 10201368
15:00+24e796183 0.0 10191551
18:00+22e51074100 0.0 1019539
21:00+21e5107898 0.1 1019364
20 june, sun
sun2000:00+20ene41085100 0.2 1019344
03:00+17ene499798 0.2 1019233
06:00+17ene4994100 0.0 1019297
09:00+20ene697569 0.1 1018454
12:00+24ene795859 0.0 1017838
15:00+25e61062100 0.3 10161112
18:00+24e61067100 0.2 10151067
21:00+21ene4128212 0.2 1015319